FW5414 Weather Reports


Display with metric or nautical units.
time (UTC)temp
F
wind
direction
speed
MPH
gust
MPH
rain 1hr
in
rain 24hr
in
rain mn
in
humidity
%
barometer
mb
20260503195909 63 158 1.0 3.0 0.00 0.00 0.00 54 1019.0
20260503195406 63 158 1.0 3.0 0.00 0.00 0.00 53 1019.0
20260503194406 63 330 1.0 2.0 0.00 0.00 0.00 53 1019.0
20260503193906 64 158 1.0 2.0 0.00 0.00 0.00 51 1019.0
20260503193407 64 158 0.0 2.0 0.00 0.00 0.00 51 1019.0
20260503192906 64 135 1.0 2.0 0.00 0.00 0.00 52 1019.0
20260503192409 64 135 0.0 2.0 0.00 0.00 0.00 51 1019.0
20260503191906 64 90 0.0 2.0 0.00 0.00 0.00 50 1019.0
20260503191414 64 143 2.0 2.0 0.00 0.00 0.00 50 1019.0
20260503190906 64 112 0.0 2.0 0.00 0.00 0.00 50 1019.0
20260503190406 64 282 0.0 5.0 0.00 0.00 0.00 50 1019.0
20260503185913 64 154 2.0 5.0 0.00 0.00 0.00 49 1018.0
20260503184906 65 158 1.0 2.0 0.00 0.00 0.00 48 1018.0
20260503184406 65 158 2.0 2.0 0.00 0.00 0.00 46 1018.0
20260503183906 66 135 0.0 3.0 0.00 0.00 0.00 44 1018.0
20260503182406 68 135 0.0 2.0 0.00 0.00 0.00 40 1018.0
20260503181906 69 135 0.0 2.0 0.00 0.00 0.00 38 1018.0
20260503181406 70 135 0.0 2.0 0.00 0.00 0.00 37 1018.0
20260503180406 71 94 2.0 5.0 0.00 0.00 0.00 36 1018.0
20260503175906 72 9 2.0 5.0 0.00 0.00 0.00 34 1018.0
20260503175406 72 15 2.0 5.0 0.00 0.00 0.00 33 1018.0
20260503174417 73 2 3.0 6.0 0.00 0.00 0.00 32 1017.0
20260503172906 74 0 3.0 8.0 0.00 0.00 0.00 31 1017.0
20260503171906 74 1 3.0 7.0 0.00 0.00 0.00 30 1017.0
20260503171406 74 3 5.0 8.0 0.00 0.00 0.00 30 1017.0
20260503170907 75 2 5.0 8.0 0.00 0.00 0.00 29 1017.0
20260503150905 77 14 3.0 13.0 0.00 0.00 0.00 23 1019.0
20260503150406 77 322 5.0 10.0 0.00 0.00 0.00 22 1019.0
20260503130905 76 16 7.0 13.0 0.00 0.00 0.00 26 1019.0
20260503110408 72 338 5.0 9.0 0.00 0.00 0.00 37 1020.0
20260503090405 65 345 3.0 6.0 0.00 0.00 0.00 51 1021.0
20260503081405 62 280 3.0 6.0 0.00 0.00 0.00 54 1022.0
20260503080405 63 278 3.0 6.0 0.00 0.00 0.00 54 1022.0
20260503072906 60 77 0.0 3.0 0.00 0.00 0.00 59 1023.0
20260503072405 59 231 1.0 5.0 0.00 0.00 0.00 62 1023.0
20260503071905 58 251 1.0 5.0 0.00 0.00 0.00 62 1023.0
20260503070905 57 310 1.0 5.0 0.00 0.00 0.00 64 1023.0
20260503054905 50 270 1.0 1.0 0.00 0.00 0.00 72 1023.0
20260503053905 49 158 1.0 2.0 0.00 0.00 0.00 72 1023.0
20260503052905 48 128 2.0 3.0 0.00 0.00 0.00 71 1023.0
20260503052405 48 141 2.0 3.0 0.00 0.00 0.00 72 1023.0
20260503051905 48 132 0.0 1.0 0.00 0.00 0.00 73 1023.0
20260503051405 47 270 0.0 2.0 0.00 0.00 0.00 74 1022.0
20260503050908 47 270 0.0 3.0 0.00 0.00 0.00 76 1022.0
20260503050408 47 196 2.0 3.0 0.00 0.00 0.00 78 1022.0
20260503045905 47 189 2.0 3.0 0.00 0.00 0.00 78 1022.0
20260503045405 46 186 2.0 3.0 0.00 0.00 0.00 74 1022.0
20260503044912 46 161 2.0 3.0 0.00 0.00 0.00 74 1022.0
20260503044407 45 180 0.0 3.0 0.00 0.00 0.00 74 1022.0
20260503043905 45 175 2.0 3.0 0.00 0.00 0.00 73 1022.0
20260503043406 45 139 2.0 3.0 0.00 0.00 0.00 72 1022.0
20260503042905 45 148 2.0 3.0 0.00 0.00 0.00 71 1022.0
20260503042406 44 168 2.0 3.0 0.00 0.00 0.00 71 1022.0
20260503041905 44 138 2.0 3.0 0.00 0.00 0.00 71 1022.0
20260503041405 44 125 2.0 3.0 0.00 0.00 0.00 71 1022.0
20260503040905 44 118 2.0 2.0 0.00 0.00 0.00 71 1022.0
20260503040405 44 112 0.0 2.0 0.00 0.00 0.00 70 1022.0
20260503035905 45 158 0.0 3.0 0.00 0.00 0.00 70 1022.0
20260503035404 44 158 2.0 3.0 0.00 0.00 0.00 70 1022.0
20260503034406 45 110 2.0 3.0 0.00 0.00 0.00 71 1022.0
20260503033905 46 112 2.0 2.0 0.00 0.00 0.00 69 1022.0
20260503033405 46 180 0.0 0.0 0.00 0.00 0.00 69 1022.0
20260503032905 46 180 0.0 0.0 0.00 0.00 0.00 70 1021.0
20260503032405 46 180 0.0 2.0 0.00 0.00 0.00 70 1021.0
20260503031905 46 180 1.0 2.0 0.00 0.00 0.00 71 1021.0
20260503031405 46 180 1.0 2.0 0.00 0.00 0.00 71 1021.0
20260503030904 46 139 0.0 3.0 0.00 0.00 0.00 69 1021.0
20260503030406 46 140 2.0 3.0 0.00 0.00 0.00 70 1021.0
20260503025906 46 161 1.0 3.0 0.00 0.00 0.00 69 1022.0
20260503025405 46 135 0.0 3.0 0.00 0.00 0.00 69 1022.0
20260503024905 46 168 2.0 5.0 0.00 0.00 0.00 72 1022.0
20260503024405 46 165 3.0 5.0 0.00 0.00 0.00 72 1021.0
20260503023906 46 158 0.0 2.0 0.00 0.00 0.00 66 1021.0
20260503023405 46 148 2.0 2.0 0.00 0.00 0.00 66 1021.0
20260503022905 46 141 1.0 2.0 0.00 0.00 0.00 66 1022.0
20260503022405 47 128 2.0 2.0 0.00 0.00 0.00 67 1022.0
20260503021905 47 135 1.0 2.0 0.00 0.00 0.00 66 1022.0
20260503021405 47 132 1.0 2.0 0.00 0.00 0.00 66 1022.0
20260503020905 47 135 0.0 3.0 0.00 0.00 0.00 66 1022.0
20260503020407 47 135 1.0 3.0 0.00 0.00 0.00 66 1022.0
20260503015904 47 112 0.0 2.0 0.00 0.00 0.00 66 1022.0
20260503014906 47 112 0.0 3.0 0.00 0.00 0.00 66 1022.0
20260503013909 48 90 2.0 3.0 0.00 0.00 0.00 66 1022.0
20260503013406 48 131 2.0 3.0 0.00 0.00 0.00 66 1022.0
20260503012407 48 112 2.0 3.0 0.00 0.00 0.00 69 1022.0
20260503011908 48 93 3.0 3.0 0.00 0.00 0.00 69 1022.0
20260503011406 48 90 1.0 3.0 0.00 0.00 0.00 68 1023.0
20260503010407 48 68 2.0 3.0 0.00 0.00 0.00 67 1023.0
20260503005907 49 112 2.0 3.0 0.00 0.00 0.00 65 1022.0
20260503004906 49 112 2.0 5.0 0.00 0.00 0.00 63 1022.0
20260503004406 49 135 2.0 3.0 0.00 0.00 0.00 63 1022.0
20260503003406 49 122 0.0 2.0 0.00 0.00 0.00 63 1022.0
20260503002907 49 132 1.0 2.0 0.00 0.00 0.00 63 1022.0
20260503002406 49 135 1.0 3.0 0.00 0.00 0.00 64 1022.0
20260503001406 49 163 2.0 3.0 0.00 0.00 0.00 64 1022.0
20260503000906 49 123 2.0 2.0 0.00 0.00 0.00 63 1022.0
20260503000415 49 148 2.0 6.0 0.00 0.00 0.00 63 1022.0
20260502235906 49 147 3.0 6.0 0.00 0.00 0.00 64 1023.0
20260502235407 49 154 3.0 6.0 0.00 0.00 0.00 65 1023.0
20260502234906 49 161 3.0 5.0 0.00 0.00 0.00 64 1023.0
20260502233911 49 164 2.0 3.0 0.00 0.00 0.00 64 1023.0
20260502233407 49 156 2.0 3.0 0.00 0.00 0.00 66 1023.0
20260502232906 50 169 2.0 5.0 0.00 0.00 0.00 66 1023.0
20260502232406 50 167 3.0 5.0 0.00 0.00 0.00 64 1023.0
20260502231411 50 158 2.0 3.0 0.00 0.00 0.00 64 1023.0
20260502230906 50 158 2.0 3.0 0.00 0.00 0.00 60 1023.0
20260502230406 51 152 1.0 3.0 0.00 0.00 0.00 60 1023.0
20260502225409 51 161 3.0 5.0 0.00 0.00 0.00 62 1023.0
20260502224907 51 161 3.0 5.0 0.00 0.00 0.00 58 1023.0
20260502224406 51 148 2.0 5.0 0.00 0.00 0.00 58 1023.0
20260502223906 52 155 3.0 5.0 0.00 0.00 0.00 57 1023.0
20260502223406 52 151 2.0 5.0 0.00 0.00 0.00 54 1023.0
20260502222907 53 135 0.0 5.0 0.00 0.00 0.00 55 1023.0
20260502221906 54 180 0.0 1.0 0.00 0.00 0.00 53 1023.0
20260502221406 54 135 0.0 0.0 0.00 0.00 0.00 52 1023.0
20260502220907 54 135 0.0 0.0 0.00 0.00 0.00 52 1023.0
20260502215910 55 135 0.0 3.0 0.00 0.00 0.00 51 1023.0
20260502214906 55 158 3.0 5.0 0.00 0.00 0.00 52 1023.0
20260502214406 55 142 1.0 2.0 0.00 0.00 0.00 51 1022.0
20260502213906 56 158 2.0 2.0 0.00 0.00 0.00 50 1022.0
20260502212910 56 135 0.0 2.0 0.00 0.00 0.00 48 1022.0
20260502212406 56 135 0.0 2.0 0.00 0.00 0.00 48 1022.0
20260502211906 57 135 2.0 2.0 0.00 0.00 0.00 48 1022.0
20260502211408 57 158 0.0 2.0 0.00 0.00 0.00 47 1022.0
20260502210907 58 158 0.0 2.0 0.00 0.00 0.00 47 1022.0
20260502205906 58 202 2.0 5.0 0.00 0.00 0.00 50 1022.0
20260502205406 58 164 2.0 5.0 0.00 0.00 0.00 46 1022.0
20260502204909 59 217 1.0 5.0 0.00 0.00 0.00 46 1022.0
20260502204406 59 177 1.0 3.0 0.00 0.00 0.00 45 1022.0
20260502203906 59 158 1.0 3.0 0.00 0.00 0.00 42 1022.0
20260502203407 60 158 0.0 2.0 0.00 0.00 0.00 42 1022.0
20260502202907 60 135 2.0 2.0 0.00 0.00 0.00 41 1022.0
20260502202406 60 251 0.0 3.0 0.00 0.00 0.00 42 1022.0
20260502201909 60 295 2.0 5.0 0.00 0.00 0.00 42 1022.0
20260502200906 60 202 0.0 5.0 0.00 0.00 0.00 42 1022.0
20260502200407 60 158 1.0 5.0 0.00 0.00 0.00 41 1022.0